QPF
0.00 0.00 0.00 0.00 0.00 0.00 0.00 0.00 0.00 0.00 0.00 0.00 0.00 0.00 0.00 0.00 0.00 0.00 0.00 0.00 0.00 0.00 0.00 0.00 0.00 0.00 0.00 0.00 0.00 0.00 0.00 0.00 0.00 0.00 0.00 0.00 0.00 0.00 0.00 0.00 0.00 0.00 0.00 0.00 0.00 0.00 0.00 0.00 0.00 0.00 0.00 0.00
0.00 0.00 0.00 0.00 0.00 0.00 0.00 0.00 0.00 0.00 0.00 0.00 0.00 0.00 0.00 0.00 0.00 0.00 0.00 0.00 0.00 0.00 0.00 0.00 0.00 0.00 0.00 0.00 0.00 0.00 0.00 0.00 0.00 0.00 0.00 0.00 0.00 0.00 0.00 0.00 0.00 0.00 0.00 0.00 0.00 0.00 0.00 0.00 0.00 0.00 0.00 0.00
0.00 0.00 0.00 0.00 0.00 0.00 0.00 0.00 0.00 0.00 0.00 0.00 0.00 0.00 0.00 0.00 0.00 0.00 0.00 0.00 0.00 0.00 0.00 0.00 0.00 0.00 0.00 0.00 0.00 0.00 0.00 0.00 0.00 0.00 0.00 0.00 0.00 0.00 0.00 0.00 0.00 0.00 0.00 0.00 0.00 0.00 0.00 0.00 0.00 0.00 0.00 0.00
0.00 0.00 0.00 0.00 0.00 0.00 0.00 0.00 0.00 0.00 0.00 0.00 0.00 0.00 0.00 0.00 0.00 0.00 0.00 0.00 0.00 0.00 0.00 0.00 0.00 0.00 0.00 0.00 0.00 0.00 0.00 0.00 0.00 0.00 0.00 0.00 0.00 0.00 0.00 0.00 0.00 0.00 0.00 0.00 0.00 0.00 0.00 0.00 0.00 0.00 0.00 0.00
0.00 0.00 0.00 0.00 0.00 0.00 0.00 0.00 0.00 0.00 0.00 0.00 0.00 0.00 0.00 0.00 0.00 0.00 0.00 0.00 0.00 0.00 0.00 0.00 0.00 0.00 0.00 0.00 0.00 0.00 0.00 0.00 0.00 0.00 0.00 0.00 0.00 0.00 0.00 0.00 0.00 0.00 0.00 0.00 0.00 0.00 0.00 0.00 0.00 0.00 0.00 0.00
0.00 0.00 0.00 0.00 0.00 0.00 0.00 0.00 0.00 0.00 0.00 0.00 0.00 0.00 0.00 0.00 0.00 0.00 0.00 0.00 0.00 0.00 0.00 0.00 0.00 0.00 0.00 0.00 0.00 0.00 0.00 0.00 0.00 0.00 0.00 0.00 0.00 0.00 0.00 0.00 0.00 0.00 0.00 0.00 0.00 0.00 0.00 0.00 0.00 0.00 0.00 0.00
0.00 0.00 0.00 0.00 0.00 0.00 0.00 0.00 0.00 0.00 0.00 0.00 0.00 0.00 0.00 0.00 0.00 0.00 0.00 0.00 0.00 0.00 0.00 0.00 0.00 0.00 0.00 0.00 0.00 0.00 0.00 0.00 0.00 0.00 0.00 0.00 0.00 0.00 0.00 0.00 0.00 0.00 0.00 0.00 0.00 0.00 0.00 0.00 0.00 0.00 0.00 0.00
0.00 0.00 0.00 0.00 0.00 0.00 0.00 0.00 0.00 0.00 0.00 0.00 0.00 0.00 0.00 0.00 0.00 0.00 0.00 0.00 0.00 0.00 0.00 0.00 0.00 0.00 0.00 0.00 0.00 0.00 0.00 0.00 0.00 0.00 0.00 0.00 0.00 0.00 0.00 0.00 0.00 0.00 0.00 0.00 0.00 0.00 0.00 0.00 0.00 0.00 0.00 0.00
0.00 0.00 0.00 0.00 0.00 0.00 0.00 0.00 0.00 0.00 0.00 0.00 0.00 0.00 0.00 0.00 0.00 0.00 0.00 0.00 0.00 0.00 0.00 0.00 0.00 0.00 0.00 0.00 0.00 0.00 0.00 0.00 0.00 0.00 0.00 0.00 0.00 0.00 0.00 0.00 0.00 0.00 0.00 0.00 0.00 0.00 0.00 0.00 0.00 0.00 0.00 0.00
0.00 0.00 0.00 0.00 0.00 0.00 0.00 0.00 0.00 0.00 0.00 0.00 0.00 0.00 0.00 0.00 0.00 0.00 0.00 0.00 0.00 0.00 0.00 0.00 0.00 0.00 0.00 0.00 0.00 0.00 0.00 0.00 0.00 0.00 0.00 0.00 0.00 0.00 0.00 0.00 0.00 0.00 0.00 0.00 0.00 0.00 0.00 0.00 0.00 0.00 0.00 0.00
0.00 0.00 0.00 0.00 0.00 0.00 0.00 0.00 0.00 0.00 0.00 0.00 0.00 0.00 0.00 0.00 0.00 0.00 0.00 0.00 0.00 0.00 0.00 0.00 0.00 0.00 0.00 0.00 0.00 0.00 0.00 0.00 0.00 0.00 0.00 0.00 0.00 0.00 0.00 0.00 0.00 0.00 0.00 0.00 0.00 0.00 0.00 0.00 0.00 0.00 0.00 0.00
0.00 0.00 0.00 0.00 0.00 0.00 0.00 0.00 0.00 0.00 0.00 0.00 0.00 0.00 0.00 0.00 0.00 0.00 0.00 0.00 0.00 0.00 0.00 0.00 0.00 0.00 0.00 0.00 0.00 0.00 0.00 0.00 0.00 0.00 0.00 0.00 0.00 0.00 0.00 0.00 0.00 0.00 0.00 0.00 0.00 0.00 0.00 0.00 0.00 0.00 0.00 0.00
0.00 0.00 0.00 0.00 0.00 0.00 0.00 0.00 0.00 0.00 0.00 0.00 0.00 0.00 0.00 0.00 0.00 0.00 0.00 0.00 0.00 0.00 0.00 0.00 0.00 0.00 0.00 0.00 0.00 0.00 0.00 0.00 0.00 0.00 0.00 0.00 0.00 0.00 0.00 0.00 0.00 0.00 0.00 0.00 0.00 0.00 0.00 0.00 0.00 0.00 0.00 0.00
0.00 0.00 0.00 0.00 0.00 0.00 0.00 0.00 0.00 0.00 0.00 0.00 0.00 0.00 0.00 0.00 0.00 0.00 0.00 0.00 0.00 0.00 0.00 0.00 0.00 0.00 0.00 0.00 0.00 0.00 0.00 0.00 0.00 0.00 0.00 0.00 0.00 0.00 0.00 0.00 0.00 0.00 0.00 0.00 0.00 0.00 0.00 0.00 0.00 0.00 0.00 0.00
0.00 0.00 0.00 0.00 0.00 0.00 0.00 0.00 0.00 0.00 0.00 0.00 0.00 0.00 0.00 0.00 0.00 0.00 0.00 0.00 0.00 0.00 0.00 0.00 0.00 0.00 0.00 0.00 0.00 0.00 0.00 0.00 0.00 0.00 0.00 0.00 0.00 0.00 0.00 0.00 0.00 0.00 0.00 0.00 0.00 0.00 0.00 0.00 0.00 0.00 0.00 0.00
0.00 0.00 0.00 0.00 0.00 0.00 0.00 0.00 0.00 0.00 0.00 0.00 0.00 0.00 0.00 0.00 0.00 0.00 0.00 0.00 0.00 0.00 0.00 0.00 0.00 0.00 0.00 0.00 0.00 0.00 0.00 0.00 0.00 0.00 0.00 0.00 0.00 0.00 0.00 0.00 0.00 0.00 0.00 0.00 0.00 0.00 0.00 0.00 0.00 0.00 0.00 0.00
0.00 0.00 0.00 0.00 0.00 0.00 0.00 0.00 0.00 0.00 0.00 0.00 0.00 0.00 0.00 0.00 0.00 0.00 0.00 0.00 0.00 0.00 0.00 0.00 0.00 0.00 0.00 0.00 0.00 0.00 0.00 0.00 0.00 0.00 0.00 0.00 0.00 0.00 0.00 0.00 0.00 0.00 0.00 0.00 0.00 0.00 0.00 0.00 0.00 0.00 0.00 0.00
0.00 0.00 0.00 0.00 0.00 0.00 0.00 0.00 0.00 0.00 0.00 0.00 0.00 0.00 0.00 0.00 0.00 0.00 0.00 0.00 0.00 0.00 0.00 0.00 0.00 0.00 0.00 0.00 0.00 0.00 0.00 0.00 0.00 0.00 0.00 0.00 0.00 0.00 0.00 0.00 0.00 0.00 0.00 0.00 0.00 0.00 0.00 0.00 0.00 0.00 0.00 0.00
0.00 0.00 0.00 0.00 0.00 0.00 0.00 0.00 0.00 0.00 0.00 0.00 0.00 0.00 0.00 0.00 0.00 0.00 0.00 0.00 0.00 0.00 0.00 0.00 0.00 0.00 0.00 0.00 0.00 0.00 0.00 0.00 0.00 0.00 0.00 0.00 0.00 0.00 0.00 0.00 0.00 0.00 0.00 0.00 0.00 0.00 0.00 0.00 0.00 0.00 0.00 0.00
0.00 0.00 0.00 0.00 0.00 0.00 0.00 0.00 0.00 0.00 0.00 0.00 0.00 0.00 0.00 0.00 0.00 0.00 0.00 0.00 0.00 0.00 0.00 0.00 0.00 0.00 0.00 0.00 0.00 0.00 0.00 0.00 0.00 0.00 0.00 0.00 0.00 0.00 0.00 0.00 0.00 0.00 0.00 0.00 0.00 0.00 0.00 0.00 0.00 0.00 0.00 0.00
0.00 0.00 0.00 0.00 0.00 0.00 0.00 0.00 0.00 0.00 0.00 0.00 0.00 0.00 0.00 0.00 0.00 0.00 0.00 0.00 0.00 0.00 0.00 0.00 0.00 0.00 0.00 0.00 0.00 0.00 0.00 0.00 0.00 0.00 0.00 0.00 0.00 0.00 0.00 0.00 0.00 0.00 0.00 0.00 0.00 0.00 0.00 0.00 0.00 0.00 0.00 0.00
0.00 0.00 0.00 0.00 0.00 0.00 0.00 0.00 0.00 0.00 0.00 0.00 0.00 0.00 0.00 0.00 0.00 0.00 0.00 0.00 0.00 0.00 0.00 0.00 0.00 0.00 0.00 0.00 0.00 0.00 0.00 0.00 0.00 0.00 0.00 0.00 0.00 0.00 0.00 0.00 0.00 0.00 0.00 0.00 0.00 0.00 0.00 0.00 0.00 0.00 0.00 0.00
0.00 0.00 0.00 0.00 0.00 0.00 0.00 0.00 0.00 0.00 0.00 0.00 0.00 0.00 0.00 0.00 0.00 0.00 0.00 0.00 0.00 0.00 0.00 0.00 0.00 0.00 0.00 0.00 0.00 0.00 0.00 0.00 0.00 0.00 0.00 0.00 0.00 0.00 0.00 0.00 0.00 0.00 0.00 0.00 0.00 0.00 0.00 0.00 0.00 0.00 0.00 0.00
0.00 0.00 0.00 0.00 0.00 0.00 0.00 0.00 0.00 0.00 0.00 0.00 0.00 0.00 0.00 0.00 0.00 0.00 0.00 0.00 0.00 0.00 0.00 0.00 0.00 0.00 0.00 0.00 0.00 0.00 0.00 0.00 0.00 0.00 0.00 0.00 0.00 0.00 0.00 0.00 0.00 0.00 0.00 0.00 0.00 0.00 0.00 0.00 0.00 0.00 0.00 0.00
0.00 0.00 0.00 0.00 0.00 0.00 0.00 0.00 0.00 0.00 0.00 0.00 0.00 0.00 0.00 0.00 0.00 0.00 0.00 0.00 0.00 0.00 0.00 0.00 0.00 0.00 0.00 0.00 0.00 0.00 0.00 0.00 0.00 0.00 0.00 0.00 0.00 0.00 0.00 0.00 0.00 0.00 0.00 0.00 0.00 0.00 0.00 0.00 0.00 0.00 0.00 0.00
0.00 0.00 0.00 0.00 0.00 0.00 0.00 0.00 0.00 0.00 0.00 0.00 0.00 0.00 0.00 0.00 0.00 0.00 0.00 0.00 0.00 0.00 0.00 0.00 0.00 0.00 0.00 0.00 0.00 0.00 0.00 0.00 0.00 0.00 0.00 0.00 0.00 0.00 0.00 0.00 0.00 0.00 0.00 0.00 0.00 0.00 0.00 0.00 0.00 0.00 0.00 0.00
0.00 0.00 0.00 0.00 0.00 0.00 0.00 0.00 0.00 0.00 0.00 0.00 0.00 0.00 0.00 0.00 0.00 0.00 0.00 0.00 0.00 0.00 0.00 0.00 0.00 0.00 0.00 0.00 0.00 0.00 0.00 0.00 0.00 0.00 0.00 0.00 0.00 0.00 0.00 0.00 0.00 0.00 0.00 0.00 0.00 0.00 0.00 0.00 0.00 0.00 0.00 0.00
0.00 0.00 0.00 0.00 0.00 0.00 0.00 0.00 0.00 0.00 0.00 0.00 0.00 0.00 0.00 0.00 0.00 0.00 0.00 0.00 0.00 0.00 0.00 0.00 0.00 0.00 0.00 0.00 0.00 0.00 0.00 0.00 0.00 0.00 0.00 0.00 0.00 0.00 0.00 0.00 0.00 0.00 0.00 0.00 0.00 0.00 0.00 0.00 0.00 0.00 0.00 0.00
0.00 0.00 0.00 0.00 0.00 0.00 0.00 0.00 0.00 0.00 0.00 0.00 0.00 0.00 0.00 0.00 0.00 0.00 0.00 0.00 0.00 0.00 0.00 0.00 0.00 0.00 0.00 0.00 0.00 0.00 0.00 0.00 0.00 0.00 0.00 0.00 0.00 0.00 0.00 0.00 0.00 0.00 0.00 0.00 0.00 0.00 0.00 0.00 0.00 0.00 0.00 0.00
0.00 0.00 0.00 0.00 0.00 0.00 0.00 0.00 0.00 0.00 0.00 0.00 0.00 0.00 0.00 0.00 0.00 0.00 0.00 0.00 0.00 0.00 0.00 0.00 0.00 0.00 0.00 0.00 0.00 0.00 0.00 0.00 0.00 0.00 0.00 0.00 0.00 0.00 0.00 0.00 0.00 0.00 0.00 0.00 0.00 0.00 0.00 0.00 0.00 0.00 0.00 0.00
0.00 0.00 0.00 0.00 0.00 0.00 0.00 0.00 0.00 0.00 0.00 0.00 0.00 0.00 0.00 0.00 0.00 0.00 0.00 0.00 0.00 0.00 0.00 0.00 0.00 0.00 0.00 0.00 0.00 0.00 0.00 0.00 0.00 0.00 0.00 0.00 0.00 0.00 0.00 0.00 0.00 0.00 0.00 0.00 0.00 0.00 0.00 0.00 0.00 0.00 0.00 0.00
MSLP
1027.31 1027.19 1027.10 1027.03 1026.91 1026.74 1026.58 1026.43 1026.27 1026.15 1026.03 1025.91 1025.82 1025.70 1025.62 1025.58 1025.43 1025.27 1025.19 1025.10 1025.06 1024.98 1024.82 1024.67 1024.46 1024.31 1024.06 1023.83 1023.71 1023.54 1023.39 1023.18 1022.98 1022.78 1022.54 1022.34 1022.15 1021.95 1021.78 1021.66 1021.54 1021.42 1021.30 1021.27 1021.15 1021.07 1020.91 1020.74 1020.54 1020.39 1020.22 1020.18
1027.39 1027.34 1027.22 1027.15 1026.98 1026.82 1026.70 1026.55 1026.43 1026.34 1026.22 1026.15 1026.06 1025.98 1025.91 1025.74 1025.55 1025.43 1025.39 1025.34 1025.27 1025.10 1024.94 1024.79 1024.67 1024.51 1024.22 1024.03 1023.86 1023.66 1023.54 1023.30 1023.10 1022.86 1022.66 1022.47 1022.27 1022.10 1021.98 1021.83 1021.66 1021.47 1021.34 1021.30 1021.22 1021.18 1021.07 1020.91 1020.66 1020.54 1020.39 1020.22
1027.34 1027.34 1027.27 1027.15 1027.03 1026.91 1026.79 1026.67 1026.58 1026.51 1026.46 1026.43 1026.34 1026.27 1026.06 1025.82 1025.70 1025.58 1025.51 1025.46 1025.34 1025.19 1025.03 1024.86 1024.74 1024.62 1024.43 1024.19 1024.03 1023.83 1023.62 1023.39 1023.15 1022.95 1022.74 1022.54 1022.39 1022.27 1022.10 1021.95 1021.74 1021.59 1021.51 1021.39 1021.34 1021.27 1021.15 1020.95 1020.83 1020.66 1020.47 1020.27
1027.34 1027.27 1027.15 1027.10 1027.03 1026.91 1026.86 1026.79 1026.70 1026.70 1026.67 1026.67 1026.58 1026.43 1026.19 1025.94 1025.94 1025.74 1025.55 1025.51 1025.46 1025.27 1025.10 1024.98 1024.86 1024.79 1024.58 1024.31 1024.10 1023.86 1023.66 1023.39 1023.15 1022.95 1022.78 1022.62 1022.51 1022.39 1022.27 1022.15 1021.91 1021.78 1021.71 1021.59 1021.54 1021.39 1021.30 1021.03 1020.95 1020.74 1020.54 1020.39
1027.27 1027.19 1027.06 1027.03 1026.98 1026.94 1026.94 1026.94 1026.86 1026.82 1026.91 1026.82 1026.79 1026.58 1026.39 1026.15 1026.06 1025.91 1025.62 1025.55 1025.51 1025.34 1025.22 1025.03 1024.91 1024.82 1024.62 1024.34 1024.10 1023.91 1023.66 1023.39 1023.18 1023.07 1022.86 1022.74 1022.62 1022.51 1022.42 1022.34 1022.22 1022.03 1021.95 1021.83 1021.74 1021.54 1021.42 1021.27 1021.07 1020.83 1020.62 1020.54
1027.19 1027.06 1027.03 1027.03 1026.98 1026.94 1026.98 1026.98 1026.98 1026.98 1026.94 1026.91 1026.91 1026.74 1026.55 1026.31 1026.10 1025.94 1025.67 1025.62 1025.55 1025.43 1025.27 1025.10 1024.94 1024.82 1024.62 1024.43 1024.15 1023.95 1023.66 1023.47 1023.30 1023.15 1022.98 1022.86 1022.78 1022.71 1022.59 1022.54 1022.51 1022.30 1022.22 1022.10 1021.95 1021.74 1021.54 1021.42 1021.22 1020.95 1020.74 1020.71
1027.19 1027.06 1027.03 1027.03 1027.03 1026.98 1026.98 1027.06 1027.03 1026.98 1026.94 1026.94 1026.94 1026.82 1026.62 1026.43 1026.19 1025.98 1025.74 1025.67 1025.62 1025.46 1025.31 1025.22 1025.03 1024.82 1024.67 1024.46 1024.19 1023.98 1023.74 1023.54 1023.42 1023.27 1023.10 1022.98 1022.95 1022.91 1022.83 1022.78 1022.71 1022.54 1022.42 1022.34 1022.10 1021.91 1021.74 1021.59 1021.39 1021.10 1020.95 1020.91
1027.27 1027.15 1027.06 1027.15 1027.15 1027.06 1027.03 1027.06 1027.03 1026.94 1026.94 1026.98 1026.98 1026.91 1026.70 1026.55 1026.22 1025.98 1025.82 1025.79 1025.67 1025.58 1025.46 1025.34 1025.19 1024.94 1024.74 1024.55 1024.31 1024.10 1023.86 1023.71 1023.62 1023.42 1023.30 1023.18 1023.10 1023.10 1023.03 1022.95 1022.83 1022.74 1022.59 1022.42 1022.22 1022.07 1021.95 1021.74 1021.54 1021.30 1021.18 1021.22
1027.27 1027.19 1027.15 1027.22 1027.27 1027.19 1027.15 1027.15 1027.03 1026.98 1026.98 1027.03 1027.03 1026.94 1026.79 1026.55 1026.27 1026.10 1025.94 1025.91 1025.82 1025.70 1025.58 1025.46 1025.31 1025.10 1024.86 1024.67 1024.46 1024.27 1024.10 1023.98 1023.86 1023.66 1023.51 1023.39 1023.30 1023.22 1023.10 1022.98 1022.95 1022.86 1022.71 1022.51 1022.30 1022.18 1022.07 1021.86 1021.66 1021.54 1021.47 1021.47
1027.22 1027.27 1027.31 1027.34 1027.39 1027.31 1027.27 1027.19 1027.06 1027.06 1027.06 1027.06 1027.06 1027.03 1026.86 1026.67 1026.43 1026.27 1026.10 1026.10 1026.03 1025.86 1025.70 1025.58 1025.46 1025.27 1025.03 1024.86 1024.67 1024.51 1024.39 1024.27 1024.10 1023.91 1023.71 1023.54 1023.47 1023.30 1023.18 1023.07 1022.95 1022.86 1022.74 1022.51 1022.39 1022.27 1022.15 1021.98 1021.83 1021.74 1021.71 1021.71
1027.27 1027.34 1027.39 1027.43 1027.43 1027.39 1027.39 1027.31 1027.15 1027.15 1027.15 1027.10 1027.03 1027.03 1026.98 1026.86 1026.67 1026.46 1026.34 1026.31 1026.19 1026.06 1025.86 1025.74 1025.58 1025.39 1025.15 1024.98 1024.82 1024.70 1024.62 1024.51 1024.34 1024.15 1023.95 1023.78 1023.66 1023.54 1023.34 1023.15 1022.98 1022.86 1022.71 1022.54 1022.42 1022.30 1022.18 1022.07 1022.03 1021.95 1021.95 1021.91
1027.31 1027.34 1027.43 1027.46 1027.43 1027.39 1027.43 1027.34 1027.27 1027.27 1027.15 1027.10 1027.06 1027.06 1027.10 1027.03 1026.86 1026.67 1026.55 1026.46 1026.39 1026.19 1026.03 1025.82 1025.67 1025.51 1025.31 1025.15 1024.98 1024.94 1024.86 1024.79 1024.67 1024.46 1024.19 1023.98 1023.83 1023.66 1023.47 1023.22 1022.98 1022.86 1022.74 1022.54 1022.34 1022.27 1022.18 1022.15 1022.15 1022.18 1022.18 1022.15
1027.34 1027.43 1027.46 1027.55 1027.55 1027.46 1027.46 1027.39 1027.39 1027.34 1027.19 1027.19 1027.15 1027.15 1027.22 1027.15 1027.03 1026.82 1026.74 1026.67 1026.55 1026.34 1026.19 1025.94 1025.79 1025.62 1025.51 1025.34 1025.19 1025.15 1025.06 1025.03 1024.91 1024.62 1024.31 1024.06 1023.91 1023.74 1023.54 1023.30 1023.10 1022.95 1022.78 1022.54 1022.30 1022.22 1022.22 1022.27 1022.30 1022.34 1022.34 1022.27
1027.46 1027.55 1027.55 1027.55 1027.58 1027.51 1027.51 1027.51 1027.46 1027.34 1027.31 1027.27 1027.22 1027.31 1027.34 1027.27 1027.10 1027.03 1026.86 1026.79 1026.67 1026.46 1026.31 1026.06 1025.94 1025.79 1025.62 1025.51 1025.34 1025.31 1025.19 1025.06 1024.98 1024.70 1024.39 1024.19 1024.03 1023.83 1023.62 1023.39 1023.15 1022.95 1022.83 1022.59 1022.34 1022.22 1022.27 1022.30 1022.39 1022.42 1022.42 1022.30
1027.62 1027.62 1027.58 1027.62 1027.58 1027.55 1027.62 1027.62 1027.46 1027.39 1027.39 1027.34 1027.34 1027.46 1027.51 1027.39 1027.22 1027.10 1026.91 1026.82 1026.74 1026.67 1026.46 1026.22 1026.06 1025.91 1025.74 1025.62 1025.51 1025.43 1025.22 1025.10 1024.94 1024.70 1024.46 1024.27 1024.03 1023.83 1023.54 1023.30 1023.07 1022.91 1022.74 1022.54 1022.39 1022.27 1022.27 1022.34 1022.39 1022.42 1022.39 1022.22
1027.62 1027.62 1027.58 1027.62 1027.55 1027.55 1027.67 1027.67 1027.51 1027.43 1027.46 1027.46 1027.43 1027.46 1027.51 1027.46 1027.31 1027.15 1026.98 1026.94 1026.94 1026.82 1026.58 1026.34 1026.15 1025.94 1025.79 1025.67 1025.62 1025.46 1025.22 1025.03 1024.86 1024.62 1024.43 1024.27 1024.03 1023.78 1023.59 1023.34 1023.07 1022.91 1022.78 1022.59 1022.47 1022.39 1022.39 1022.39 1022.42 1022.39 1022.34 1022.18
1027.55 1027.55 1027.58 1027.58 1027.51 1027.55 1027.67 1027.58 1027.46 1027.46 1027.46 1027.46 1027.43 1027.43 1027.46 1027.46 1027.39 1027.31 1027.27 1027.22 1027.10 1026.94 1026.62 1026.34 1026.10 1025.91 1025.79 1025.74 1025.67 1025.46 1025.19 1025.03 1024.86 1024.58 1024.39 1024.27 1024.15 1023.95 1023.78 1023.54 1023.22 1023.03 1022.91 1022.74 1022.59 1022.51 1022.47 1022.39 1022.39 1022.34 1022.27 1022.18
1027.58 1027.46 1027.51 1027.46 1027.43 1027.46 1027.58 1027.46 1027.43 1027.43 1027.46 1027.46 1027.43 1027.39 1027.43 1027.51 1027.51 1027.51 1027.43 1027.39 1027.22 1026.98 1026.67 1026.39 1026.10 1025.94 1025.82 1025.82 1025.70 1025.51 1025.27 1025.15 1024.94 1024.74 1024.67 1024.58 1024.39 1024.22 1024.06 1023.83 1023.51 1023.22 1023.03 1022.86 1022.66 1022.59 1022.54 1022.42 1022.34 1022.27 1022.22 1022.10
1027.58 1027.51 1027.51 1027.46 1027.34 1027.39 1027.46 1027.46 1027.39 1027.39 1027.39 1027.43 1027.43 1027.39 1027.43 1027.51 1027.58 1027.55 1027.51 1027.43 1027.31 1027.06 1026.70 1026.43 1026.22 1026.03 1025.98 1025.94 1025.86 1025.67 1025.43 1025.27 1025.06 1024.98 1024.94 1024.82 1024.70 1024.43 1024.22 1023.98 1023.78 1023.42 1023.15 1022.98 1022.83 1022.66 1022.54 1022.47 1022.22 1022.10 1022.07 1021.98
1027.34 1027.34 1027.39 1027.34 1027.31 1027.39 1027.39 1027.43 1027.34 1027.31 1027.31 1027.34 1027.39 1027.39 1027.39 1027.51 1027.55 1027.51 1027.46 1027.43 1027.31 1027.10 1026.79 1026.55 1026.39 1026.22 1026.15 1026.10 1026.03 1025.82 1025.58 1025.39 1025.27 1025.19 1025.10 1025.03 1024.86 1024.62 1024.34 1024.15 1023.91 1023.54 1023.30 1023.15 1022.98 1022.78 1022.59 1022.34 1022.10 1021.95 1021.86 1021.83
1027.19 1027.19 1027.15 1027.15 1027.15 1027.22 1027.31 1027.34 1027.31 1027.19 1027.19 1027.27 1027.31 1027.31 1027.39 1027.46 1027.51 1027.43 1027.43 1027.43 1027.31 1027.15 1026.86 1026.67 1026.51 1026.39 1026.34 1026.31 1026.22 1026.03 1025.74 1025.55 1025.43 1025.34 1025.34 1025.22 1024.98 1024.74 1024.55 1024.34 1024.03 1023.62 1023.39 1023.27 1023.10 1022.78 1022.51 1022.15 1021.86 1021.71 1021.66 1021.62
1026.94 1026.94 1026.94 1026.98 1027.03 1027.06 1027.19 1027.22 1027.19 1027.10 1027.06 1027.15 1027.15 1027.22 1027.34 1027.46 1027.46 1027.39 1027.43 1027.39 1027.31 1027.15 1026.91 1026.74 1026.58 1026.51 1026.46 1026.46 1026.39 1026.15 1025.91 1025.67 1025.55 1025.51 1025.51 1025.34 1025.03 1024.82 1024.67 1024.43 1024.15 1023.71 1023.47 1023.34 1023.10 1022.74 1022.34 1021.91 1021.54 1021.34 1021.42 1021.39
1026.86 1026.86 1026.86 1026.82 1026.82 1026.86 1026.94 1026.98 1026.98 1026.94 1026.98 1026.98 1027.03 1027.19 1027.34 1027.39 1027.43 1027.34 1027.39 1027.34 1027.27 1027.15 1027.06 1026.91 1026.79 1026.62 1026.55 1026.55 1026.43 1026.27 1026.03 1025.82 1025.74 1025.67 1025.55 1025.39 1025.10 1024.91 1024.79 1024.43 1024.06 1023.66 1023.59 1023.42 1023.03 1022.59 1022.07 1021.54 1021.03 1021.03 1021.10 1021.22
1026.62 1026.51 1026.51 1026.58 1026.58 1026.74 1026.70 1026.70 1026.70 1026.74 1026.82 1026.86 1026.91 1027.10 1027.22 1027.31 1027.39 1027.34 1027.34 1027.31 1027.27 1027.22 1027.10 1027.10 1026.94 1026.74 1026.62 1026.51 1026.43 1026.27 1026.10 1025.94 1025.82 1025.70 1025.51 1025.34 1025.27 1025.03 1024.62 1024.34 1023.95 1023.71 1023.74 1023.54 1023.03 1022.18 1021.66 1021.34 1020.83 1020.71 1020.83 1020.95
1026.22 1026.22 1026.15 1026.10 1026.10 1026.10 1026.10 1026.31 1026.34 1026.46 1026.55 1026.67 1026.79 1026.98 1027.15 1027.22 1027.27 1027.27 1027.34 1027.27 1027.27 1027.27 1027.19 1027.10 1026.98 1026.82 1026.62 1026.51 1026.46 1026.34 1026.22 1025.94 1025.70 1025.55 1025.46 1025.39 1025.34 1025.15 1024.86 1024.58 1024.06 1023.86 1023.91 1023.59 1022.83 1022.39 1022.10 1021.27 1020.54 1020.30 1020.54 1020.78
1026.19 1026.06 1026.03 1026.22 1026.43 1026.43 1026.31 1026.22 1026.19 1026.22 1026.34 1026.51 1026.70 1026.91 1027.03 1027.15 1027.15 1027.22 1027.31 1027.27 1027.27 1027.27 1027.15 1027.15 1027.06 1026.91 1026.70 1026.58 1026.55 1026.46 1026.22 1025.86 1025.58 1025.46 1025.55 1025.55 1025.51 1025.31 1025.22 1024.94 1024.31 1024.10 1024.03 1023.86 1024.19 1023.83 1022.78 1021.66 1020.34 1020.59 1020.59 1020.66
1026.15 1025.98 1025.91 1026.06 1026.31 1026.46 1026.55 1026.34 1026.22 1026.22 1026.34 1026.51 1026.67 1026.79 1026.91 1026.98 1027.06 1027.15 1027.22 1027.19 1027.19 1027.19 1027.15 1027.10 1027.03 1026.94 1026.86 1026.70 1026.58 1026.51 1026.31 1025.94 1025.67 1025.58 1025.67 1025.74 1025.74 1025.62 1025.31 1025.03 1024.43 1024.31 1024.34 1024.70 1024.51 1024.03 1023.39 1021.34 1020.98 1020.51 1020.83 1020.51
1025.98 1025.98 1025.98 1026.10 1026.31 1026.46 1026.58 1026.55 1026.43 1026.31 1026.31 1026.43 1026.51 1026.62 1026.74 1026.86 1026.94 1027.06 1027.15 1027.06 1027.06 1027.06 1026.98 1026.94 1026.98 1026.98 1026.94 1026.82 1026.74 1026.58 1026.43 1026.06 1025.79 1025.70 1025.79 1025.82 1025.91 1025.82 1025.70 1025.39 1024.79 1024.55 1024.55 1024.55 1024.67 1023.51 1023.39 1022.86 1022.30 1021.51 1020.34 1022.15
1025.91 1025.98 1026.06 1026.06 1026.22 1026.43 1026.51 1026.46 1026.43 1026.43 1026.27 1026.31 1026.43 1026.51 1026.62 1026.70 1026.82 1026.91 1026.98 1026.94 1026.94 1026.94 1026.91 1026.91 1026.91 1026.91 1026.94 1026.98 1026.86 1026.70 1026.39 1026.10 1025.94 1025.86 1025.86 1025.91 1026.03 1026.06 1025.98 1025.86 1025.46 1024.74 1024.58 1024.58 1024.62 1024.82 1024.39 1022.59 1021.34 1021.22 1022.66 1022.71
1025.74 1025.91 1025.91 1025.86 1025.94 1026.19 1026.43 1026.43 1026.43 1026.39 1026.19 1026.19 1026.34 1026.27 1026.22 1026.51 1026.70 1026.79 1026.79 1026.82 1026.82 1026.82 1026.86 1026.86 1026.86 1026.86 1026.94 1026.94 1026.82 1026.67 1026.43 1026.27 1026.15 1026.03 1026.03 1026.06 1026.19 1026.22 1026.06 1025.94 1025.82 1025.39 1024.79 1024.55 1024.62 1024.55 1024.55 1024.43 1024.03 1023.74 1023.71 1023.51
1025.67 1025.86 1025.82 1025.79 1025.70 1025.70 1025.74 1025.86 1025.70 1025.46 1025.51 1025.58 1025.70 1025.91 1026.10 1026.27 1026.51 1026.55 1026.58 1026.62 1026.67 1026.74 1026.82 1026.91 1026.94 1026.94 1027.03 1027.03 1026.94 1026.74 1026.58 1026.43 1026.22 1026.15 1026.19 1026.19 1026.22 1026.34 1026.43 1026.31 1025.98 1025.51 1025.06 1024.82 1024.43 1024.62 1024.55 1024.51 1024.51 1024.51 1024.51 1023.66
Thickness
5606 5604 5604 5602 5601 5601 5600 5599 5598 5598 5597 5597 5596 5595 5593 5592 5591 5590 5589 5588 5586 5585 5585 5584 5584 5583 5582 5582 5580 5580 5578 5578 5578 5577 5577 5576 5576 5575 5573 5572 5570 5568 5566 5564 5562 5559 5557 5555 5553 5551 5550 5548
5601 5600 5599 5598 5597 5597 5596 5596 5595 5594 5593 5592 5591 5589 5589 5588 5587 5585 5584 5583 5582 5581 5580 5579 5578 5578 5577 5577 5576 5575 5574 5573 5573 5572 5572 5571 5570 5569 5567 5565 5563 5562 5560 5557 5555 5552 5549 5548 5546 5544 5543 5541
5598 5597 5596 5595 5594 5593 5593 5591 5590 5589 5588 5587 5585 5585 5584 5583 5583 5581 5580 5579 5578 5577 5576 5575 5574 5573 5572 5572 5571 5570 5570 5569 5569 5568 5567 5565 5564 5562 5560 5559 5557 5555 5553 5550 5548 5545 5542 5541 5540 5538 5536 5535
5595 5593 5593 5591 5590 5590 5589 5587 5586 5585 5583 5582 5581 5580 5580 5579 5578 5577 5576 5575 5574 5573 5572 5571 5570 5568 5568 5567 5566 5566 5565 5565 5564 5563 5562 5560 5558 5556 5554 5552 5550 5549 5547 5544 5540 5538 5536 5535 5533 5532 5530 5527
5591 5591 5590 5588 5587 5586 5585 5584 5582 5581 5579 5577 5576 5576 5576 5574 5573 5573 5572 5571 5570 5569 5568 5567 5565 5564 5564 5563 5562 5561 5561 5560 5559 5558 5556 5554 5552 5550 5547 5544 5543 5541 5538 5536 5533 5531 5529 5528 5527 5525 5523 5519
5589 5588 5587 5585 5584 5583 5581 5580 5578 5577 5575 5574 5573 5572 5571 5570 5569 5569 5568 5568 5566 5565 5564 5562 5561 5560 5559 5559 5558 5557 5557 5556 5554 5553 5551 5548 5546 5543 5541 5537 5536 5533 5531 5528 5526 5524 5523 5521 5520 5518 5515 5511
5587 5585 5584 5583 5581 5580 5578 5576 5575 5574 5572 5571 5569 5568 5567 5566 5566 5566 5565 5564 5562 5561 5559 5558 5557 5556 5555 5554 5554 5553 5552 5551 5549 5547 5545 5542 5539 5537 5534 5531 5529 5526 5523 5521 5519 5518 5516 5514 5513 5511 5508 5503
5583 5583 5581 5579 5578 5576 5575 5573 5572 5570 5569 5566 5565 5564 5563 5562 5563 5562 5561 5559 5558 5557 5555 5554 5553 5552 5551 5550 5550 5548 5548 5546 5544 5542 5539 5536 5533 5530 5528 5525 5522 5519 5517 5515 5513 5511 5509 5507 5506 5503 5499 5495
5580 5579 5578 5576 5574 5573 5571 5569 5568 5566 5565 5563 5561 5560 5559 5559 5559 5558 5557 5555 5554 5552 5551 5549 5548 5547 5547 5546 5545 5543 5543 5540 5538 5536 5533 5530 5527 5524 5522 5519 5515 5513 5510 5509 5507 5505 5503 5501 5499 5495 5491 5486
5577 5576 5574 5572 5571 5569 5568 5566 5565 5563 5561 5559 5557 5556 5556 5555 5554 5553 5552 5550 5549 5547 5546 5545 5543 5543 5542 5541 5539 5538 5536 5533 5531 5529 5527 5524 5521 5518 5516 5513 5510 5507 5505 5503 5501 5499 5497 5495 5492 5488 5483 5478
5575 5573 5570 5569 5567 5566 5564 5563 5561 5559 5558 5556 5554 5553 5552 5551 5550 5549 5547 5545 5544 5542 5541 5540 5539 5537 5536 5535 5533 5531 5529 5526 5524 5522 5520 5517 5514 5512 5510 5508 5505 5502 5500 5498 5496 5494 5492 5489 5485 5480 5476 5471
5572 5569 5567 5565 5563 5562 5560 5558 5557 5555 5553 5552 5551 5549 5548 5547 5545 5544 5542 5540 5538 5536 5536 5534 5533 5532 5530 5529 5527 5525 5522 5519 5517 5515 5513 5511 5509 5507 5505 5502 5500 5497 5495 5493 5491 5489 5486 5482 5478 5473 5469 5464
5568 5566 5564 5561 5559 5558 5556 5554 5553 5551 5550 5548 5547 5545 5543 5542 5540 5538 5537 5534 5533 5531 5530 5529 5528 5527 5525 5523 5521 5519 5516 5514 5511 5509 5508 5507 5504 5502 5500 5497 5495 5493 5490 5488 5486 5484 5480 5476 5471 5466 5462 5459
5564 5562 5560 5558 5556 5554 5552 5550 5548 5547 5546 5545 5543 5541 5539 5537 5535 5533 5531 5530 5528 5527 5526 5524 5523 5521 5520 5518 5516 5514 5511 5509 5506 5505 5503 5502 5499 5496 5495 5492 5490 5488 5485 5484 5481 5478 5474 5470 5465 5461 5457 5454
5560 5558 5556 5554 5552 5550 5548 5546 5545 5544 5542 5541 5539 5537 5534 5532 5531 5529 5527 5526 5524 5522 5521 5519 5518 5517 5515 5513 5511 5509 5507 5504 5502 5500 5498 5496 5494 5492 5491 5488 5486 5484 5482 5479 5476 5472 5468 5464 5460 5456 5452 5450
5557 5555 5552 5550 5548 5547 5544 5543 5542 5540 5538 5537 5535 5533 5530 5529 5526 5525 5523 5521 5519 5517 5516 5515 5514 5512 5510 5508 5506 5504 5502 5499 5498 5496 5494 5492 5490 5488 5486 5484 5482 5479 5477 5474 5470 5466 5461 5458 5455 5451 5448 5446
5553 5551 5549 5547 5546 5544 5542 5540 5539 5537 5535 5533 5531 5529 5527 5524 5522 5520 5518 5516 5514 5513 5511 5510 5509 5507 5505 5503 5501 5499 5497 5495 5493 5491 5489 5487 5484 5482 5480 5478 5476 5473 5471 5468 5464 5460 5457 5453 5450 5447 5445 5443
5550 5549 5547 5545 5543 5541 5539 5537 5536 5534 5531 5529 5527 5524 5523 5520 5518 5515 5513 5511 5509 5508 5507 5506 5504 5502 5500 5498 5496 5494 5492 5490 5488 5486 5483 5480 5477 5475 5473 5471 5470 5468 5465 5462 5459 5456 5452 5449 5446 5444 5442 5439
5548 5546 5544 5542 5540 5538 5536 5534 5532 5530 5527 5525 5523 5520 5519 5516 5513 5511 5508 5507 5505 5503 5503 5501 5499 5497 5495 5493 5490 5488 5486 5484 5482 5479 5476 5473 5471 5468 5467 5465 5463 5461 5459 5457 5454 5451 5448 5445 5442 5441 5438 5436
5546 5544 5542 5540 5538 5535 5533 5531 5529 5527 5525 5522 5520 5517 5515 5512 5509 5507 5505 5503 5501 5499 5497 5496 5494 5491 5489 5486 5484 5482 5480 5478 5476 5473 5470 5467 5465 5463 5461 5459 5457 5455 5454 5451 5449 5447 5444 5442 5440 5438 5436 5434
5545 5542 5540 5538 5535 5533 5530 5527 5526 5524 5522 5519 5516 5514 5511 5508 5506 5503 5501 5498 5496 5494 5493 5491 5488 5486 5483 5480 5478 5477 5475 5473 5470 5467 5464 5462 5460 5459 5457 5454 5452 5450 5449 5446 5444 5443 5442 5441 5438 5436 5434 5431
5542 5540 5538 5535 5533 5530 5528 5525 5523 5521 5518 5516 5513 5511 5508 5505 5502 5500 5497 5494 5492 5490 5487 5486 5483 5481 5478 5475 5473 5471 5469 5467 5465 5463 5460 5458 5456 5454 5452 5450 5447 5447 5445 5442 5441 5441 5440 5440 5438 5436 5433 5429
5540 5538 5536 5533 5531 5528 5525 5522 5520 5517 5515 5513 5510 5507 5505 5501 5498 5496 5493 5490 5488 5485 5482 5480 5478 5475 5473 5470 5468 5466 5464 5463 5460 5458 5456 5454 5452 5449 5447 5445 5444 5443 5441 5439 5438 5438 5438 5439 5438 5435 5431 5427
5537 5536 5534 5531 5529 5525 5523 5520 5517 5515 5512 5510 5507 5504 5501 5497 5495 5491 5489 5486 5483 5480 5478 5475 5472 5471 5469 5466 5464 5462 5459 5458 5456 5454 5451 5449 5447 5445 5443 5440 5440 5438 5435 5434 5435 5435 5435 5435 5436 5434 5430 5425
5536 5534 5532 5529 5526 5523 5521 5518 5515 5512 5510 5507 5504 5501 5497 5494 5491 5488 5484 5482 5479 5476 5473 5471 5468 5466 5464 5462 5460 5457 5455 5454 5452 5450 5447 5444 5441 5439 5437 5435 5434 5432 5429 5429 5429 5430 5429 5430 5433 5432 5427 5423
5533 5531 5529 5526 5523 5519 5517 5515 5513 5509 5507 5504 5501 5497 5494 5491 5487 5484 5481 5478 5475 5472 5469 5467 5464 5462 5460 5457 5454 5452 5450 5449 5448 5445 5441 5438 5434 5432 5429 5428 5428 5425 5422 5419 5417 5418 5420 5427 5430 5426 5422 5418
5530 5529 5527 5523 5519 5516 5512 5511 5509 5506 5504 5500 5497 5494 5491 5488 5484 5480 5477 5474 5471 5468 5466 5463 5460 5458 5455 5453 5450 5447 5445 5444 5442 5439 5435 5431 5428 5425 5422 5420 5419 5418 5414 5410 5407 5407 5412 5418 5419 5418 5417 5412
5527 5525 5523 5520 5516 5512 5509 5507 5505 5502 5500 5497 5494 5491 5488 5484 5481 5478 5473 5470 5468 5465 5462 5459 5456 5453 5450 5447 5444 5442 5439 5437 5436 5432 5429 5425 5421 5418 5415 5413 5412 5410 5406 5402 5399 5399 5401 5404 5406 5410 5407 5401
5525 5522 5519 5516 5513 5509 5505 5503 5501 5498 5496 5493 5490 5487 5484 5480 5477 5474 5470 5467 5464 5461 5458 5455 5451 5448 5445 5442 5439 5436 5434 5432 5429 5427 5423 5419 5415 5411 5408 5405 5403 5402 5400 5395 5391 5387 5387 5392 5397 5398 5390 5387
5522 5518 5516 5513 5510 5506 5502 5500 5497 5495 5493 5491 5487 5485 5481 5477 5473 5470 5467 5464 5461 5457 5454 5450 5446 5443 5440 5437 5433 5431 5429 5426 5423 5420 5416 5412 5408 5404 5400 5398 5396 5394 5393 5390 5386 5380 5376 5377 5379 5378 5372 5373
5519 5516 5513 5510 5507 5505 5501 5497 5495 5494 5492 5488 5485 5483 5479 5474 5470 5466 5463 5460 5456 5453 5449 5445 5441 5438 5434 5431 5428 5425 5423 5420 5417 5414 5410 5406 5402 5398 5393 5390 5389 5388 5385 5383 5381 5377 5371 5367 5364 5361 5360 5360